Regional Weather Roundup
Issued by NWS Bismarck, ND

Home | Current Version | Previous Version | Text Only | Print | Product List | Glossary On
Versions: 1 2 3 4 5 6 7 8 9 10 11 12 13 14 15 16 17 18 19 20 21 22 23 24 25 26 27 28 29 30 31 32 33 34 35 36 37 38 39 40 41 42 43 44 45 46 47 48 49 50
000
ASUS43 KBIS 181510
RWRBIS

NWR BROADCAST TEXT
NATIONAL WEATHER SERVICE BISMARCK ND
900 AM CST THU DEC 18 2014

NOTE: "FAIR" INDICATES FEW OR NO CLOUDS BELOW 12,000 FEET WITH NO
SIGNIFICANT WEATHER AND/OR OBSTRUCTIONS TO VISIBILITY.


CITY           SKY/WX    TMP DP  RH WIND       PRES   REMARKS
WILLISTON      CLOUDY    21  17  84 S5        30.00S WCI  15
MINOT          CLOUDY    18  14  84 SE5       30.05S WCI  11
MINOT AFB      CLOUDY    14  14 100 SE6       30.05S WCI   5
BISMARCK       CLOUDY    18  16  92 SE8       30.09S WCI   8
DICKINSON      CLOUDY    22  19  89 S8        29.95S WCI  12
GARRISON         N/A     19  16  88 S8        30.04S WCI   9
HETTINGER ARPT CLOUDY    23  20  88 S6        29.98S WCI  16
JAMESTOWN      CLOUDY    16  12  84 SE9       30.14S WCI   4
BEACH          MIX PCPN  25  25 100 SW5       29.96R WCI  19
CARRINGTON     CLOUDY    14  14 100 MISG      30.14R
CROSBY         CLOUDY    19  19 100 S5        30.01S WCI  13
HARVEY         CLOUDY    14  12  92 S9        30.11R WCI   2
HAZEN          CLOUDY    19  16  86 S12       30.05S WCI   7
LINTON         CLOUDY    18  18 100 SE13      30.09R WCI   4
MANDAN         CLOUDY    18  16  93 SE8       30.07S FOG     WCI   7
OAKES            N/A     16  14  93 SE8       30.18S WCI   5
RUGBY          FAIR      10   9  92 SE7       30.10S WCI   0
STANLEY        CLOUDY    18  18 100 S7        30.00S WCI   8
TIOGA          CLOUDY    18  18 100 S8        30.02S FOG     WCI   7
WATFORD CITY   CLOUDY    19  18  93 SE7       29.98S WCI  10
$$

CITY           SKY/WX    TMP DP  RH WIND       PRES   REMARKS
GRAND FORKS    CLOUDY     9   6  88 SE7       30.24S WCI  -2
GRAND FORKS AF FAIR       9   8  98 SE5       30.23S WCI   0
DEVILS LAKE    CLOUDY    14   7  73 SE9       30.12S WCI   2
FARGO          MOCLDY    13   8  81 S10       30.25S WCI   0
CANDO          CLOUDY    12  10  92 SE7       30.14S WCI   2
CAVALIER       FAIR       9   7  92 S3        30.22F FOG
GWINNER        CLOUDY    18  18 100 MISG      30.21S
LANGDON        PTSUNNY    7   1  78 SE7       30.13S WCI  -5
ROLLA          PTSUNNY    9   7  92 S8        30.10S WCI  -4
WALHALLA         N/A      1   1 100 CALM      30.21F
$$

CITY           SKY/WX    TMP DP  RH WIND       PRES   REMARKS
ABERDEEN       CLOUDY    20  14  77 S8        30.19S WCI  10
MOBRIDGE       CLOUDY    21  18  88 SE14      30.06F WCI   8
BUFFALO          N/A     22  19  89 S6        29.89S WCI  14
RAPID CITY     FOG       20  19  96 SE5       30.00S VSB<1/4 WCI  13
GLASGOW        CLOUDY    25  22  88 SE3       29.95R
SIDNEY         CLOUDY    23  19  86 CALM      30.01R
WOLF POINT     CLOUDY    25  22  88 E5        29.98S WCI  19
GLENDIVE       CLOUDY    25  21  86 SW6       29.97S WCI  18
MILES CITY     MOCLDY    23  21  92 SE3       29.96S
BAKER          CLOUDY    27  25  92 W5        29.95R
$$

CITY           SKY/WX    TMP DP  RH WIND       PRES   REMARKS
BILLINGS       PTCLDY    24  17  74 SW20      29.97R WCI  10
GREAT FALLS    PTCLDY    32  24  72 SW17      29.90S
ESTEVAN        CLOUDY    16  14  93 SE7       30.01S WCI   6
$$




USA.gov is the U.S. government's official web portal to all federal, state and local government web resources and services.